FW1340 Weather Reports


time (UTC)temp
C
wind
direction
speed
KPH
gust
KPH
rain 1hr
cm
rain 24hr
cm
rain mn
cm
humidity
%
barometer
mb
20260509180032 23 334 0.0 0.0 0.00 0.00 0.00 63 1014.5
20260509174529 22 266 0.0 0.0 0.00 0.00 0.00 64 1014.6
20260509173029 22 252 0.0 0.0 0.00 0.00 0.00 65 1014.4
20260509171530 21 342 0.0 0.0 0.00 0.00 0.00 65 1014.6
20260509170019 21 313 0.0 0.0 0.00 0.00 0.00 66 1014.6
20260509164514 21 323 0.0 0.0 0.00 0.00 0.00 67 1014.7
20260509163016 20 310 0.0 0.0 0.00 0.00 0.00 67 1014.7
20260509161510 20 252 0.0 0.0 0.00 0.00 0.00 67 1014.7
20260509160002 19 236 0.0 0.0 0.00 0.00 0.00 68 1014.6
20260509154608 18 93 0.0 0.0 0.00 0.00 0.00 71 1014.6
20260509153054 18 118 0.0 0.0 0.00 0.00 0.00 74 1014.7
20260509151552 17 129 0.0 0.0 0.00 0.00 0.00 78 1014.6
20260509150057 16 96 0.0 0.0 0.00 0.00 0.00 84 1014.8
20260509144544 15 128 0.0 0.0 0.00 0.00 0.00 86 1014.8
20260509143047 14 132 0.0 0.0 0.00 0.00 0.00 90 1014.8
20260509141536 13 98 0.0 0.0 0.00 0.00 0.00 92 1014.8
20260509140031 12 94 0.0 0.0 0.00 0.00 0.00 93 1014.7
20260509134526 11 5 0.0 0.0 0.00 0.00 0.00 92 1014.6
20260509133023 11 317 0.0 0.0 0.00 0.00 0.00 91 1014.5
20260509131519 11 317 0.0 0.0 0.00 0.00 0.00 90 1014.4
20260509130018 11 317 0.0 0.0 0.00 0.00 0.00 89 1014.1
20260509124515 11 317 0.0 0.0 0.00 0.00 0.00 90 1014.0
20260509123014 11 317 0.0 0.0 0.00 0.00 0.00 90 1014.0
20260509121517 11 317 0.0 0.0 0.00 0.00 0.00 90 1014.1
20260509120013 11 317 0.0 0.0 0.00 0.00 0.00 89 1014.0
20260509114529 11 338 0.0 0.0 0.00 0.00 0.00 89 1014.0
20260509113011 12 338 0.0 0.0 0.00 0.00 0.00 89 1014.2
20260509111509 12 338 0.0 0.0 0.00 0.00 0.00 88 1014.0
20260509110006 12 271 0.0 0.0 0.00 0.00 0.00 88 1013.9
20260509104505 12 271 0.0 0.0 0.00 0.00 0.00 88 1014.1
20260509103004 12 271 0.0 0.0 0.00 0.00 0.00 87 1014.0
20260509101504 12 271 0.0 0.0 0.00 0.00 0.00 86 1014.2
20260509100059 12 271 0.0 0.0 0.00 0.00 0.00 86 1014.3
20260509094603 12 271 0.0 0.0 0.00 0.00 0.00 86 1014.4
20260509093056 13 271 0.0 0.0 0.00 0.00 0.00 85 1014.3
20260509091559 13 271 0.0 0.0 0.00 0.00 0.00 84 1014.3
20260509090106 13 271 0.0 0.0 0.00 0.00 0.00 85 1014.3
20260509084550 13 271 0.0 0.0 0.00 0.00 0.00 84 1014.4
20260509083053 13 271 0.0 0.0 0.00 0.00 0.00 84 1014.5
20260509081546 14 271 0.0 0.0 0.00 0.00 0.00 83 1014.6
20260509080103 14 271 0.0 0.0 0.00 0.00 0.00 83 1014.6
20260509074543 14 271 0.0 0.0 0.00 0.00 0.00 83 1014.6
20260509073040 15 271 0.0 0.0 0.00 0.00 0.00 81 1014.7
20260509071537 15 271 0.0 0.0 0.00 0.00 0.00 80 1014.6
20260509070038 15 271 0.0 0.0 0.00 0.00 0.00 80 1014.5
20260509064534 15 271 0.0 0.0 0.00 0.00 0.00 79 1014.6
20260509063034 16 271 0.0 0.0 0.00 0.00 0.00 77 1014.6
20260509061535 16 271 0.0 0.0 0.00 0.00 0.00 77 1014.5
20260509060034 16 232 0.0 0.0 0.00 0.00 0.00 77 1014.6
20260509054532 16 248 0.0 0.0 0.00 0.00 0.00 76 1014.5
20260509053040 17 271 0.0 0.0 0.00 0.00 0.00 75 1014.5
20260509051533 17 265 0.0 0.0 0.00 0.00 0.00 74 1014.4
20260509050047 17 242 0.0 0.0 0.00 0.00 0.00 73 1014.3
20260509044534 18 281 0.0 0.0 0.00 0.00 0.00 74 1014.2
20260509043039 18 245 0.0 0.0 0.00 0.00 0.00 72 1014.1
20260509041530 18 246 0.0 0.0 0.00 0.00 0.00 70 1014.0
20260509040029 19 259 0.0 0.0 0.00 0.00 0.00 69 1013.9
20260509034528 20 252 0.0 0.0 0.00 0.00 0.00 68 1013.9
20260509033036 20 265 0.0 0.0 0.00 0.00 0.00 68 1013.8
20260509031531 21 223 0.0 0.0 0.00 0.00 0.00 67 1013.7
20260509030029 21 259 0.0 0.0 0.00 0.00 0.00 66 1013.6
20260509024529 22 263 0.0 0.0 0.00 0.00 0.00 64 1013.5
20260509023026 23 238 0.0 0.0 0.00 0.00 0.00 62 1013.4
20260509021525 24 269 0.0 0.0 0.00 0.00 0.00 58 1013.5
20260509020023 25 263 0.0 0.0 0.00 0.00 0.00 55 1013.4
20260509014526 26 249 0.0 0.0 0.00 0.00 0.00 55 1013.6
20260509013022 26 246 0.0 0.0 0.00 0.00 0.00 54 1013.6
20260509011522 27 256 0.0 0.0 0.00 0.00 0.00 51 1013.6
20260509010020 27 273 0.0 0.0 0.00 0.00 0.00 50 1013.6
20260509004519 28 316 0.0 0.0 0.00 0.00 0.00 50 1013.7
20260509003017 28 321 0.0 0.0 0.00 0.00 0.00 50 1013.8
20260509001515 28 234 0.0 0.0 0.00 0.00 0.00 50 1013.9
20260509000028 28 251 0.0 0.0 0.00 0.00 0.00 51 1014.0
20260508234512 27 274 0.0 0.0 0.00 0.00 0.00 52 1014.2
20260508233009 28 246 0.0 0.0 0.00 0.00 0.00 51 1014.3
20260508231507 28 238 0.0 0.0 0.00 0.00 0.00 51 1014.6
20260508230005 28 311 0.0 0.0 0.00 0.00 0.00 51 1014.7
20260508224502 27 294 0.0 0.0 0.00 0.00 0.00 52 1014.9
20260508223059 27 277 0.0 0.0 0.00 0.00 0.00 53 1015.1
20260508221609 27 252 0.0 0.0 0.00 0.00 0.00 55 1015.4
20260508220053 27 241 0.0 0.0 0.00 0.00 0.00 53 1015.6
20260508214552 27 326 0.0 0.0 0.00 0.00 0.00 54 1015.7
20260508213048 27 286 0.0 0.0 0.00 0.00 0.00 53 1015.9
20260508211549 26 256 0.0 0.0 0.00 0.00 0.00 53 1016.2
20260508210044 26 307 0.0 0.0 0.00 0.00 0.00 53 1016.4
20260508204542 25 263 0.0 0.0 0.00 0.00 0.00 55 1016.5
20260508203038 25 277 0.0 0.0 0.00 0.00 0.00 54 1016.6
20260508201540 25 252 0.0 0.0 0.00 0.00 0.00 54 1016.7
20260508200042 24 242 0.0 0.0 0.00 0.00 0.00 57 1016.8
20260508194529 24 325 0.0 0.0 0.00 0.00 0.00 58 1017.0
20260508193026 23 254 0.0 0.0 0.00 0.00 0.00 59 1017.2
20260508191524 23 214 0.0 0.0 0.00 0.00 0.00 60 1017.3
20260508190021 22 323 0.0 0.0 0.00 0.00 0.00 61 1017.4
20260508184525 22 341 0.0 0.0 0.00 0.00 0.00 62 1017.5
20260508183013 21 324 0.0 0.0 0.00 0.00 0.00 63 1017.7
20260508181510 21 264 0.0 0.0 0.00 0.00 0.00 64 1017.8